sat.trackr.live / text

‹ back to catalog

STARLINK-36703

NORAD 67650 · 2026-022C

PAYLOAD ACTIVE UNKNOWN

§ Identity

Operator
Country
US
Launch date
2026-02-02
Launch site
AFWTR
Launch vehicle
Mass (kg)
RCS (m²)

Purposes: comms

External: N2YO · Heavens-Above · Gunter

§ Orbital elements

Epoch: 2026-05-25T02:29:09.802752Z

Period
93.91 min
Inclination
97.2837°
Eccentricity
0.0001323
Mean motion
15.33442352 rev/d
Perigee alt
464.6 km
Apogee alt
466.5 km
Semi-major
6,843.7 km
B*
9.3415e-5
RAAN
178.3628°
Arg perigee
94.3974°
Mean anomaly
265.7420°
Rev number
1,728

§ Raw data

STARLINK-367031 67650U 26022C   26145.10358568  .00002942  00000+0  93415-4 0  99922 67650  97.2837 178.3628 0001323  94.3974 265.7420 15.33442352 17288

JSON: /api/v1/satellites/67650 · /tle

For live sub-satellite position, see the globe view (requires WebGL).

§ Visibility from observer

Set your observer location to see the next 7 days of passes ≥ 10°. The values pass through the URL so the page stays shareable.

No JS? Fill the form by hand. The geolocation button needs JavaScript.